Location: Del Amo
(33.8464°N, 118.2104°W)
Time: 03:22:57
(UTC+00:00)

S-56A Canister/Altair - Pass Details

Date: 22 September 2024
Orbit: 636 x 2487 km, 38.9° (Epoch: 05 October)

Event Time Altitude Azimuth Distance (km) Brightness Sun altitude
Rises 01:57:44 0° 276° (W) 2,994 13.8 -2.4°
Reaches altitude 10° 01:59:54 10° 281° (WNW) 2,164 11.8 -2.9°
Maximum altitude 02:04:41 52° 359° (N) 1,026 8.2 -3.9°
Drops below altitude 10° 02:11:17 10° 75° (ENE) 2,957 9.9 -5.2°
Enters shadow 02:12:54 - 78° (ENE) 3,558 10.3 -5.6°
Sets 02:14:41 0° 80° (E) 4,215 - -6.0°
